Location: Newark
(23.1300°N, 73.6109°E)
Time: 11:33:23
(UTC+00:00)

Envisat - Visible Passes

Search period start: 07 April 2020 00:00
Search period end: 17 April 2020 00:00
Orbit: 764 x 766 km, 98.1° (Epoch: 07 April)

Date Brightness Start Highest point End Pass type
(mag) Time Alt. Az. Time Alt. Az. Time Alt. Az.
07 Apr 5.7 13:52:50 10° SSW 13:56:42 22° W 14:00:36 10° NW visible
09 Apr 6.4 14:21:14 10° WSW 14:22:18 11° W 14:23:22 10° W visible
10 Apr 5.3 13:41:00 10° SSW 13:45:22 29° W 13:49:45 10° NW visible
11 Apr 6.0 00:21:53 10° ENE 00:24:50 15° E 00:27:46 10° SE visible
12 Apr 6.0 14:08:09 10° SW 14:10:56 15° W 14:13:43 10° WNW visible
14 Apr 6.4 00:11:59 10° ENE 00:13:28 11° E 00:14:56 10° ESE visible
15 Apr 5.8 13:55:56 10° SW 13:59:34 20° W 14:03:13 10° NW visible
